Time,TemperatureF,DewpointF,PressureIn,WindDirection,WindDirectionDegrees,WindSpeedMPH,WindSpeedGustMPH,Humidity,HourlyPrecipIn,Conditions,Clouds,dailyrainin,SoftwareType,DateUTC
2013-09-18 00:08:00,41.0,40.5,29.74,SSE,157,0.0,-999.0,98,-99.99,,,0.00,Acu-Link.com,2013-09-18 07:08:00,
2013-09-18 00:23:00,41.0,40.5,29.74,NE,45,0.0,-999.0,98,-99.99,,,0.00,Acu-Link.com,2013-09-18 07:23:00,
2013-09-18 00:38:00,41.0,40.5,29.75,SE,135,0.0,-999.0,98,-99.99,,,0.00,Acu-Link.com,2013-09-18 07:38:00,
2013-09-18 00:53:00,39.2,38.7,29.75,ESE,112,0.0,-999.0,98,-99.99,,,0.00,Acu-Link.com,2013-09-18 07:53:00,
2013-09-18 01:09:00,39.2,38.7,29.75,East,90,0.0,-999.0,98,-99.99,,,0.00,Acu-Link.com,2013-09-18 08:09:00,
2013-09-18 01:24:00,39.2,38.7,29.75,ESE,112,0.0,-999.0,98,-99.99,,,0.00,Acu-Link.com,2013-09-18 08:24:00,
2013-09-18 01:40:00,39.2,38.7,29.75,East,90,0.0,-999.0,98,-99.99,,,0.00,Acu-Link.com,2013-09-18 08:40:00,
2013-09-18 01:55:00,39.2,38.7,29.75,NE,45,0.0,-999.0,98,-99.99,,,0.00,Acu-Link.com,2013-09-18 08:55:00,
2013-09-18 02:10:00,37.4,36.9,29.76,NE,45,0.0,-999.0,98,-99.99,,,0.00,Acu-Link.com,2013-09-18 09:10:00,
2013-09-18 02:25:00,37.4,36.9,29.76,NE,45,0.0,-999.0,98,-99.99,,,0.00,Acu-Link.com,2013-09-18 09:25:00,
2013-09-18 02:41:00,37.4,36.9,29.75,East,90,0.0,-999.0,98,-99.99,,,0.00,Acu-Link.com,2013-09-18 09:41:00,
2013-09-18 02:56:00,37.4,36.9,29.76,NNW,337,0.0,-999.0,98,-99.99,,,0.00,Acu-Link.com,2013-09-18 09:56:00,
2013-09-18 03:11:00,37.4,36.9,29.76,East,90,0.0,-999.0,98,-99.99,,,0.00,Acu-Link.com,2013-09-18 10:11:00,
2013-09-18 03:26:00,37.4,36.9,29.77,SW,225,0.0,-999.0,98,-99.99,,,0.00,Acu-Link.com,2013-09-18 10:26:00,
2013-09-18 03:41:00,37.4,36.9,29.77,NE,45,0.0,-999.0,98,-99.99,,,0.00,Acu-Link.com,2013-09-18 10:41:00,
2013-09-18 03:56:00,37.4,36.9,29.76,ESE,112,0.0,-999.0,98,-99.99,,,0.00,Acu-Link.com,2013-09-18 10:56:00,
2013-09-18 04:11:00,35.6,35.1,29.77,ESE,112,0.0,-999.0,98,-99.99,,,0.00,Acu-Link.com,2013-09-18 11:11:00,
2013-09-18 04:26:00,35.6,35.1,29.77,NE,45,0.0,-999.0,98,-99.99,,,0.00,Acu-Link.com,2013-09-18 11:26:00,
2013-09-18 04:41:00,35.6,35.1,29.77,NE,45,0.0,-999.0,98,-99.99,,,0.00,Acu-Link.com,2013-09-18 11:41:00,
2013-09-18 04:56:00,35.6,35.1,29.78,NNE,22,0.0,-999.0,98,-99.99,,,0.00,Acu-Link.com,2013-09-18 11:56:00,
2013-09-18 05:11:00,35.6,35.1,29.79,NE,45,0.0,-999.0,98,-99.99,,,0.00,Acu-Link.com,2013-09-18 12:11:00,
2013-09-18 05:26:00,35.6,35.1,29.79,ENE,67,0.0,-999.0,98,-99.99,,,0.00,Acu-Link.com,2013-09-18 12:26:00,
2013-09-18 05:41:00,35.6,35.1,29.79,NNE,22,0.0,-999.0,98,-99.99,,,0.00,Acu-Link.com,2013-09-18 12:41:00,
2013-09-18 05:57:00,35.6,35.1,29.80,East,90,0.0,-999.0,98,-99.99,,,0.00,Acu-Link.com,2013-09-18 12:57:00,
2013-09-18 06:12:00,35.6,35.1,29.80,ESE,112,0.0,-999.0,98,-99.99,,,0.00,Acu-Link.com,2013-09-18 13:12:00,
2013-09-18 06:27:00,35.6,35.1,29.80,ENE,67,0.0,-999.0,98,-99.99,,,0.00,Acu-Link.com,2013-09-18 13:27:00,
2013-09-18 06:42:00,35.6,35.1,29.81,NE,45,0.0,-999.0,98,-99.99,,,0.00,Acu-Link.com,2013-09-18 13:42:00,
2013-09-18 06:57:00,35.6,35.1,29.82,ENE,67,0.0,-999.0,98,-99.99,,,0.00,Acu-Link.com,2013-09-18 13:57:00,
2013-09-18 07:12:00,35.6,35.1,29.82,NE,45,0.0,-999.0,98,-99.99,,,0.00,Acu-Link.com,2013-09-18 14:12:00,
2013-09-18 07:28:00,35.6,35.1,29.82,NE,45,0.0,-999.0,98,-99.99,,,0.00,Acu-Link.com,2013-09-18 14:28:00,
2013-09-18 07:43:00,35.6,35.1,29.82,ESE,112,0.0,-999.0,98,-99.99,,,0.00,Acu-Link.com,2013-09-18 14:43:00,
2013-09-18 07:58:00,35.6,35.1,29.83,SSW,202,0.0,-999.0,98,-99.99,,,0.00,Acu-Link.com,2013-09-18 14:58:00,
2013-09-18 08:14:00,35.6,35.1,29.83,ESE,112,0.0,-999.0,98,-99.99,,,0.00,Acu-Link.com,2013-09-18 15:14:00,
2013-09-18 08:29:00,35.6,35.1,29.83,South,180,0.0,-999.0,98,-99.99,,,0.00,Acu-Link.com,2013-09-18 15:29:00,
2013-09-18 08:44:00,37.4,36.9,29.83,SSE,157,0.0,-999.0,98,-99.99,,,0.00,Acu-Link.com,2013-09-18 15:44:00,
2013-09-18 09:00:00,39.2,38.7,29.84,SW,225,0.0,-999.0,98,-99.99,,,0.00,Acu-Link.com,2013-09-18 16:00:00,
2013-09-18 09:15:00,42.8,42.3,29.84,SW,225,0.0,-999.0,98,-99.99,,,0.00,Acu-Link.com,2013-09-18 16:15:00,
2013-09-18 09:30:00,42.8,42.3,29.84,SSW,202,0.0,-999.0,98,-99.99,,,0.00,Acu-Link.com,2013-09-18 16:30:00,
2013-09-18 09:45:00,42.8,42.3,29.86,NNW,337,0.0,-999.0,98,-99.99,,,0.00,Acu-Link.com,2013-09-18 16:45:00,
2013-09-18 10:00:00,46.4,43.6,29.85,WNW,292,0.0,-999.0,90,-99.99,,,0.00,Acu-Link.com,2013-09-18 17:00:00,
2013-09-18 10:15:00,50.0,45.0,29.86,SE,135,0.0,-999.0,83,-99.99,,,0.00,Acu-Link.com,2013-09-18 17:15:00,
2013-09-18 10:31:00,50.0,44.4,29.86,NNW,337,0.0,-999.0,81,-99.99,,,0.00,Acu-Link.com,2013-09-18 17:31:00,
2013-09-18 10:46:00,51.8,44.8,29.86,NE,45,0.0,-999.0,77,-99.99,,,0.00,Acu-Link.com,2013-09-18 17:46:00,
2013-09-18 11:01:00,53.6,45.2,29.86,NW,315,0.0,-999.0,73,-99.99,,,0.00,Acu-Link.com,2013-09-18 18:01:00,
2013-09-18 11:16:00,55.4,45.4,29.86,South,180,0.0,-999.0,69,-99.99,,,0.00,Acu-Link.com,2013-09-18 18:16:00,
2013-09-18 11:31:00,55.4,43.8,29.86,North,0,0.0,-999.0,65,-99.99,,,0.00,Acu-Link.com,2013-09-18 18:31:00,
2013-09-18 11:46:00,55.4,43.8,29.85,NE,45,0.0,-999.0,65,-99.99,,,0.00,Acu-Link.com,2013-09-18 18:46:00,
2013-09-18 12:02:00,57.2,44.7,29.85,North,0,0.0,-999.0,63,-99.99,,,0.00,Acu-Link.com,2013-09-18 19:02:00,
2013-09-18 12:17:00,59.0,45.1,29.86,ENE,67,0.0,-999.0,60,-99.99,,,0.00,Acu-Link.com,2013-09-18 19:17:00,
2013-09-18 12:32:00,60.8,47.3,29.86,West,270,0.0,-999.0,61,-99.99,,,0.00,Acu-Link.com,2013-09-18 19:32:00,
2013-09-18 12:47:00,60.8,46.8,29.85,SW,225,0.0,-999.0,60,-99.99,,,0.00,Acu-Link.com,2013-09-18 19:47:00,
2013-09-18 13:03:00,57.2,43.0,29.86,West,270,0.0,-999.0,59,-99.99,,,0.00,Acu-Link.com,2013-09-18 20:03:00,
2013-09-18 13:18:00,60.8,42.6,29.86,SSW,202,0.0,-999.0,51,-99.99,,,0.00,Acu-Link.com,2013-09-18 20:18:00,
2013-09-18 13:33:00,57.2,45.1,29.86,ESE,112,0.0,-999.0,64,-99.99,,,0.00,Acu-Link.com,2013-09-18 20:33:00,
2013-09-18 13:48:00,60.8,42.0,29.86,ENE,67,0.0,-999.0,50,-99.99,,,0.00,Acu-Link.com,2013-09-18 20:48:00,
2013-09-18 14:04:00,59.0,42.4,29.86,SE,135,0.0,-999.0,54,-99.99,,,0.00,Acu-Link.com,2013-09-18 21:04:00,
2013-09-18 14:19:00,62.6,41.0,29.86,West,270,0.0,-999.0,45,-99.99,,,0.00,Acu-Link.com,2013-09-18 21:19:00,
2013-09-18 14:34:00,62.6,43.2,29.85,SW,225,0.0,-999.0,49,-99.99,,,0.00,Acu-Link.com,2013-09-18 21:34:00,
2013-09-18 14:49:00,62.6,43.2,29.85,West,270,0.0,-999.0,49,-99.99,,,0.00,Acu-Link.com,2013-09-18 21:49:00,
2013-09-18 15:05:00,62.6,41.0,29.85,NNW,337,0.0,-999.0,45,-99.99,,,0.00,Acu-Link.com,2013-09-18 22:05:00,
2013-09-18 15:20:00,62.6,41.0,29.85,NNE,22,0.0,-999.0,45,-99.99,,,0.00,Acu-Link.com,2013-09-18 22:20:00,
2013-09-18 15:35:00,62.6,40.4,29.84,SSE,157,0.0,-999.0,44,-99.99,,,0.00,Acu-Link.com,2013-09-18 22:35:00,
2013-09-18 15:50:00,62.6,39.8,29.84,SW,225,0.0,-999.0,43,-99.99,,,0.00,Acu-Link.com,2013-09-18 22:50:00,
2013-09-18 16:05:00,62.6,40.4,29.84,West,270,0.0,-999.0,44,-99.99,,,0.00,Acu-Link.com,2013-09-18 23:05:00,
2013-09-18 16:21:00,60.8,38.8,29.85,SE,135,0.0,-999.0,44,-99.99,,,0.00,Acu-Link.com,2013-09-18 23:21:00,
2013-09-18 16:36:00,62.6,41.0,29.84,SW,225,0.0,-999.0,45,-99.99,,,0.00,Acu-Link.com,2013-09-18 23:36:00,
2013-09-18 16:51:00,60.8,39.9,29.84,West,270,0.0,-999.0,46,-99.99,,,0.00,Acu-Link.com,2013-09-18 23:51:00,
2013-09-18 17:22:00,62.6,39.2,29.85,SSE,157,0.0,-999.0,42,-99.99,,,0.00,Acu-Link.com,2013-09-19 00:22:00,
2013-09-18 17:37:00,62.6,40.4,29.85,NNE,22,0.0,-999.0,44,-99.99,,,0.00,Acu-Link.com,2013-09-19 00:37:00,
2013-09-18 17:52:00,60.8,42.0,29.85,ENE,67,0.0,-999.0,50,-99.99,,,0.00,Acu-Link.com,2013-09-19 00:52:00,
2013-09-18 18:07:00,59.0,39.9,29.85,ENE,67,0.0,-999.0,49,-99.99,,,0.00,Acu-Link.com,2013-09-19 01:07:00,
2013-09-18 18:23:00,57.2,39.2,29.85,NNE,22,0.0,-999.0,51,-99.99,,,0.00,Acu-Link.com,2013-09-19 01:23:00,
2013-09-18 18:38:00,55.4,40.4,29.85,NE,45,0.0,-999.0,57,-99.99,,,0.00,Acu-Link.com,2013-09-19 01:38:00,
2013-09-18 18:53:00,53.6,40.9,29.86,NE,45,0.0,-999.0,62,-99.99,,,0.00,Acu-Link.com,2013-09-19 01:53:00,
2013-09-18 19:08:00,51.8,40.0,29.85,NE,45,0.0,-999.0,64,-99.99,,,0.00,Acu-Link.com,2013-09-19 02:08:00,
2013-09-18 19:24:00,51.8,40.8,29.86,NE,45,0.0,-999.0,66,-99.99,,,0.00,Acu-Link.com,2013-09-19 02:24:00,
2013-09-18 19:39:00,51.8,40.8,29.86,WNW,292,0.0,-999.0,66,-99.99,,,0.01,Acu-Link.com,2013-09-19 02:39:00,
2013-09-18 19:54:00,60.8,44.0,29.86,ENE,67,1.1,-999.0,54,-99.99,,,0.01,Acu-Link.com,2013-09-19 02:54:00,
2013-09-18 20:09:00,53.6,43.3,29.87,ESE,112,0.0,-999.0,68,-99.99,,,0.01,Acu-Link.com,2013-09-19 03:09:00,
2013-09-18 20:24:00,50.0,42.0,29.88,East,90,0.0,-999.0,74,-99.99,,,0.01,Acu-Link.com,2013-09-19 03:24:00,
2013-09-18 20:39:00,48.2,41.3,29.88,East,90,0.0,-999.0,77,-99.99,,,0.01,Acu-Link.com,2013-09-19 03:39:00,
2013-09-18 20:55:00,46.4,40.2,29.89,ESE,112,0.0,-999.0,79,-99.99,,,0.01,Acu-Link.com,2013-09-19 03:55:00,
2013-09-18 21:10:00,44.6,39.8,29.89,ENE,67,0.0,-999.0,83,-99.99,,,0.01,Acu-Link.com,2013-09-19 04:10:00,
2013-09-18 21:25:00,44.6,40.1,29.89,ESE,112,0.0,-999.0,84,-99.99,,,0.01,Acu-Link.com,2013-09-19 04:25:00,
2013-09-18 21:40:00,44.6,40.4,29.89,ESE,112,0.0,-999.0,85,-99.99,,,0.01,Acu-Link.com,2013-09-19 04:40:00,
2013-09-18 21:55:00,44.6,41.0,29.89,NNE,22,0.0,-999.0,87,-99.99,,,0.01,Acu-Link.com,2013-09-19 04:55:00,
2013-09-18 22:10:00,42.8,39.2,29.89,East,90,0.0,-999.0,87,-99.99,,,0.01,Acu-Link.com,2013-09-19 05:10:00,
2013-09-18 22:25:00,42.8,39.8,29.89,South,180,0.0,-999.0,89,-99.99,,,0.01,Acu-Link.com,2013-09-19 05:25:00,
2013-09-18 22:40:00,42.8,40.1,29.89,East,90,1.6,-999.0,90,-99.99,,,0.01,Acu-Link.com,2013-09-19 05:40:00,
2013-09-18 22:56:00,42.8,40.1,29.89,East,90,1.6,-999.0,90,-99.99,,,0.01,Acu-Link.com,2013-09-19 05:56:00,
2013-09-18 23:11:00,42.8,40.1,29.89,SE,135,1.6,-999.0,90,-99.99,,,0.01,Acu-Link.com,2013-09-19 06:11:00,
2013-09-18 23:26:00,42.8,39.8,29.89,ENE,67,0.0,-999.0,89,-99.99,,,0.01,Acu-Link.com,2013-09-19 06:26:00,
2013-09-18 23:41:00,41.0,38.3,29.89,NE,45,1.6,-999.0,90,-99.99,,,0.01,Acu-Link.com,2013-09-19 06:41:00,
2013-09-18 23:56:00,41.0,38.9,29.89,NE,45,0.0,-999.0,92,-99.99,,,0.01,Acu-Link.com,2013-09-19 06:56:00,